Index of /20260414/WXO-DD/model_gdps/15km/12/183
Name Last modified Size Description
Parent Directory -
20260414T12Z_MSC_GDPS_AirTemp_AGL-120m_LatLon0.15_PT183H.grib2 2026-04-14 16:37 908K
20260414T12Z_MSC_GDPS_AirTemp_AGL-2m_LatLon0.15_PT183H.grib2 2026-04-14 16:37 1.0M
20260414T12Z_MSC_GDPS_AirTemp_AGL-40m_LatLon0.15_PT183H.grib2 2026-04-14 16:37 929K
20260414T12Z_MSC_GDPS_AirTemp_AGL-80m_LatLon0.15_PT183H.grib2 2026-04-14 16:37 918K
20260414T12Z_MSC_GDPS_AirTemp_IsbL-0001_LatLon0.15_PT183H.grib2 2026-04-14 16:37 639K
20260414T12Z_MSC_GDPS_AirTemp_IsbL-0005_LatLon0.15_PT183H.grib2 2026-04-14 16:37 743K
20260414T12Z_MSC_GDPS_AirTemp_IsbL-0500_LatLon0.15_PT183H.grib2 2026-04-14 16:37 1.0M
20260414T12Z_MSC_GDPS_AirTemp_IsbL-0700_LatLon0.15_PT183H.grib2 2026-04-14 16:37 953K
20260414T12Z_MSC_GDPS_AirTemp_IsbL-0850_LatLon0.15_PT183H.grib2 2026-04-14 16:37 1.1M
20260414T12Z_MSC_GDPS_AirTemp_IsbL-0925_LatLon0.15_PT183H.grib2 2026-04-14 16:37 1.1M
20260414T12Z_MSC_GDPS_AirTemp_IsbL-1000_LatLon0.15_PT183H.grib2 2026-04-14 16:37 1.1M
20260414T12Z_MSC_GDPS_Albedo_Sfc_LatLon0.15_PT183H.grib2 2026-04-14 16:37 247K
20260414T12Z_MSC_GDPS_ConvectivePrecip-Accum_Sfc_LatLon0.15_PT183H.grib2 2026-04-14 16:37 3.8M
20260414T12Z_MSC_GDPS_DewPointDepression_AGL-2m_LatLon0.15_PT183H.grib2 2026-04-14 16:37 751K
20260414T12Z_MSC_GDPS_DewPointDepression_IsbL-0500_LatLon0.15_PT183H.grib2 2026-04-14 16:37 1.0M
20260414T12Z_MSC_GDPS_DewPointDepression_IsbL-0700_LatLon0.15_PT183H.grib2 2026-04-14 16:37 1.1M
20260414T12Z_MSC_GDPS_DewPointDepression_IsbL-0850_LatLon0.15_PT183H.grib2 2026-04-14 16:37 1.2M
20260414T12Z_MSC_GDPS_DewPointDepression_IsbL-0925_LatLon0.15_PT183H.grib2 2026-04-14 16:37 1.0M
20260414T12Z_MSC_GDPS_DewPointDepression_IsbL-1000_LatLon0.15_PT183H.grib2 2026-04-14 16:37 972K
20260414T12Z_MSC_GDPS_DewPoint_AGL-2m_LatLon0.15_PT183H.grib2 2026-04-14 16:37 605K
20260414T12Z_MSC_GDPS_DownwardLongwaveRadiationFlux-Accum_Sfc_LatLon0.15_PT183H.grib2 2026-04-14 16:37 652K
20260414T12Z_MSC_GDPS_DownwardShortwaveRadiationFlux-Accum_Sfc_LatLon0.15_PT183H.grib2 2026-04-14 16:37 857K
20260414T12Z_MSC_GDPS_FreezingRain-Accum_Sfc_LatLon0.15_PT183H.grib2 2026-04-14 16:37 371K
20260414T12Z_MSC_GDPS_GeopotentialHeight_IsbL-0001_LatLon0.15_PT183H.grib2 2026-04-14 16:37 402K
20260414T12Z_MSC_GDPS_GeopotentialHeight_IsbL-0005_LatLon0.15_PT183H.grib2 2026-04-14 16:37 494K
20260414T12Z_MSC_GDPS_GeopotentialHeight_IsbL-0500_LatLon0.15_PT183H.grib2 2026-04-14 16:37 533K
20260414T12Z_MSC_GDPS_GeopotentialHeight_IsbL-0700_LatLon0.15_PT183H.grib2 2026-04-14 16:37 683K
20260414T12Z_MSC_GDPS_GeopotentialHeight_IsbL-0850_LatLon0.15_PT183H.grib2 2026-04-14 16:37 710K
20260414T12Z_MSC_GDPS_GeopotentialHeight_IsbL-0925_LatLon0.15_PT183H.grib2 2026-04-14 16:37 736K
20260414T12Z_MSC_GDPS_GeopotentialHeight_IsbL-1000_LatLon0.15_PT183H.grib2 2026-04-14 16:37 791K
20260414T12Z_MSC_GDPS_IcePellets-Accum_Sfc_LatLon0.15_PT183H.grib2 2026-04-14 16:37 215K
20260414T12Z_MSC_GDPS_LatentHeatNetFlux_Sfc_LatLon0.15_PT183H.grib2 2026-04-14 16:37 668K
20260414T12Z_MSC_GDPS_NetLongwaveRadiationFlux-Accum_Sfc_LatLon0.15_PT183H.grib2 2026-04-14 16:37 865K
20260414T12Z_MSC_GDPS_NetShortwaveRadiationFlux-Accum_Sfc_LatLon0.15_PT183H.grib2 2026-04-14 16:37 862K
20260414T12Z_MSC_GDPS_O3MixingRatio_LatLon0.15_PT183H.grib2 2026-04-14 16:57 1.9M
20260414T12Z_MSC_GDPS_O3_EAtm_LatLon0.15_PT183H.grib2 2026-04-14 16:57 2.5M
20260414T12Z_MSC_GDPS_PlanetaryBoundaryLayerHeight_Sfc_LatLon0.15_PT183H.grib2 2026-04-14 16:37 2.4M
20260414T12Z_MSC_GDPS_Precip-Accum_Sfc_LatLon0.15_PT183H.grib2 2026-04-14 16:37 5.3M
20260414T12Z_MSC_GDPS_PrecipRate_Sfc_LatLon0.15_PT183H.grib2 2026-04-14 16:37 3.1M
20260414T12Z_MSC_GDPS_Pressure_MSL_LatLon0.15_PT183H.grib2 2026-04-14 16:37 723K
20260414T12Z_MSC_GDPS_Pressure_Sfc_LatLon0.15_PT183H.grib2 2026-04-14 16:37 1.1M
20260414T12Z_MSC_GDPS_RadiativeTemp_Sfc_LatLon0.15_PT183H.grib2 2026-04-14 16:37 665K
20260414T12Z_MSC_GDPS_Rain-Accum_Sfc_LatLon0.15_PT183H.grib2 2026-04-14 16:37 4.1M
20260414T12Z_MSC_GDPS_RelativeHumidity_AGL-2m_LatLon0.15_PT183H.grib2 2026-04-14 16:37 1.0M
20260414T12Z_MSC_GDPS_Runoff-Accum_Sfc_LatLon0.15_PT183H.grib2 2026-04-14 16:37 146K
20260414T12Z_MSC_GDPS_SensibleHeatNetFlux_Sfc_LatLon0.15_PT183H.grib2 2026-04-14 16:37 453K
20260414T12Z_MSC_GDPS_Snow-Accum_Sfc_LatLon0.15_PT183H.grib2 2026-04-14 16:37 2.1M
20260414T12Z_MSC_GDPS_SnowDepth_Sfc_LatLon0.15_PT183H.grib2 2026-04-14 16:37 1.8M
20260414T12Z_MSC_GDPS_SoilTemp_DBS-0to10cm_LatLon0.15_PT183H.grib2 2026-04-14 16:37 510K
20260414T12Z_MSC_GDPS_SoilTemp_Sfc_LatLon0.15_PT183H.grib2 2026-04-14 16:37 584K
20260414T12Z_MSC_GDPS_SoilVolumetricWaterContent_DBS-0to10cm_LatLon0.15_PT183H.grib2 2026-04-14 16:37 556K
20260414T12Z_MSC_GDPS_SoilVolumetricWaterContent_DBS-0to1cm_LatLon0.15_PT183H.grib2 2026-04-14 16:37 651K
20260414T12Z_MSC_GDPS_SpecificHumidity_AGL-120m_LatLon0.15_PT183H.grib2 2026-04-14 16:37 1.1M
20260414T12Z_MSC_GDPS_SpecificHumidity_AGL-2m_LatLon0.15_PT183H.grib2 2026-04-14 16:37 1.2M
20260414T12Z_MSC_GDPS_SpecificHumidity_AGL-40m_LatLon0.15_PT183H.grib2 2026-04-14 16:37 1.1M
20260414T12Z_MSC_GDPS_SpecificHumidity_AGL-80m_LatLon0.15_PT183H.grib2 2026-04-14 16:37 1.1M
20260414T12Z_MSC_GDPS_SpecificHumidity_IsbL-0001_LatLon0.15_PT183H.grib2 2026-04-14 16:37 1.1M
20260414T12Z_MSC_GDPS_SpecificHumidity_IsbL-0005_LatLon0.15_PT183H.grib2 2026-04-14 16:37 1.0M
20260414T12Z_MSC_GDPS_SpecificHumidity_IsbL-0500_LatLon0.15_PT183H.grib2 2026-04-14 16:37 1.4M
20260414T12Z_MSC_GDPS_SpecificHumidity_IsbL-0700_LatLon0.15_PT183H.grib2 2026-04-14 16:37 1.6M
20260414T12Z_MSC_GDPS_SpecificHumidity_IsbL-0850_LatLon0.15_PT183H.grib2 2026-04-14 16:37 1.9M
20260414T12Z_MSC_GDPS_SpecificHumidity_IsbL-0925_LatLon0.15_PT183H.grib2 2026-04-14 16:37 1.9M
20260414T12Z_MSC_GDPS_SpecificHumidity_IsbL-1000_LatLon0.15_PT183H.grib2 2026-04-14 16:37 1.5M
20260414T12Z_MSC_GDPS_SpecificHumidity_Sfc_LatLon0.15_PT183H.grib2 2026-04-14 16:37 634K
20260414T12Z_MSC_GDPS_Thickness_IsbL-0850to0700_LatLon0.15_PT183H.grib2 2026-04-14 16:37 470K
20260414T12Z_MSC_GDPS_Thickness_IsbL-1000to0500_LatLon0.15_PT183H.grib2 2026-04-14 16:37 380K
20260414T12Z_MSC_GDPS_Thickness_IsbL-1000to0850_LatLon0.15_PT183H.grib2 2026-04-14 16:37 494K
20260414T12Z_MSC_GDPS_TotalCloudCover_Sfc_LatLon0.15_PT183H.grib2 2026-04-14 16:37 815K
20260414T12Z_MSC_GDPS_UVIndex-ClearSky_Sfc_LatLon0.15_PT183H.grib2 2026-04-14 16:57 1.0M
20260414T12Z_MSC_GDPS_UVIndex_Sfc_LatLon0.15_PT183H.grib2 2026-04-14 16:57 1.4M
20260414T12Z_MSC_GDPS_UpwardLongwaveRadiationFlux_NTAtm_LatLon0.15_PT183H.grib2 2026-04-14 16:37 1.1M
20260414T12Z_MSC_GDPS_VerticalVelocity_IsbL-0500_LatLon0.15_PT183H.grib2 2026-04-14 16:37 1.0M
20260414T12Z_MSC_GDPS_VerticalVelocity_IsbL-0700_LatLon0.15_PT183H.grib2 2026-04-14 16:37 1.1M
20260414T12Z_MSC_GDPS_VerticalVelocity_IsbL-0850_LatLon0.15_PT183H.grib2 2026-04-14 16:37 1.6M
20260414T12Z_MSC_GDPS_WindDir_AGL-10m_LatLon0.15_PT183H.grib2 2026-04-14 16:37 1.3M
20260414T12Z_MSC_GDPS_WindDir_AGL-120m_LatLon0.15_PT183H.grib2 2026-04-14 16:37 1.4M
20260414T12Z_MSC_GDPS_WindDir_AGL-40m_LatLon0.15_PT183H.grib2 2026-04-14 16:37 1.4M
20260414T12Z_MSC_GDPS_WindDir_AGL-80m_LatLon0.15_PT183H.grib2 2026-04-14 16:37 1.4M
20260414T12Z_MSC_GDPS_WindDir_IsbL-0001_LatLon0.15_PT183H.grib2 2026-04-14 16:37 653K
20260414T12Z_MSC_GDPS_WindDir_IsbL-0005_LatLon0.15_PT183H.grib2 2026-04-14 16:37 800K
20260414T12Z_MSC_GDPS_WindDir_IsbL-0500_LatLon0.15_PT183H.grib2 2026-04-14 16:37 1.3M
20260414T12Z_MSC_GDPS_WindDir_IsbL-0700_LatLon0.15_PT183H.grib2 2026-04-14 16:37 1.6M
20260414T12Z_MSC_GDPS_WindDir_IsbL-0850_LatLon0.15_PT183H.grib2 2026-04-14 16:37 1.9M
20260414T12Z_MSC_GDPS_WindDir_IsbL-0925_LatLon0.15_PT183H.grib2 2026-04-14 16:37 2.0M
20260414T12Z_MSC_GDPS_WindDir_IsbL-1000_LatLon0.15_PT183H.grib2 2026-04-14 16:37 2.1M
20260414T12Z_MSC_GDPS_WindGust-Max_AGL-10m_LatLon0.15_PT183H.grib2 2026-04-14 16:37 2.2M
20260414T12Z_MSC_GDPS_WindGust-Min_AGL-10m_LatLon0.15_PT183H.grib2 2026-04-14 16:37 2.2M
20260414T12Z_MSC_GDPS_WindGust_AGL-10m_LatLon0.15_PT183H.grib2 2026-04-14 16:37 2.2M
20260414T12Z_MSC_GDPS_WindSpeed_AGL-10m_LatLon0.15_PT183H.grib2 2026-04-14 16:37 1.1M
20260414T12Z_MSC_GDPS_WindSpeed_AGL-120m_LatLon0.15_PT183H.grib2 2026-04-14 16:37 1.2M
20260414T12Z_MSC_GDPS_WindSpeed_AGL-40m_LatLon0.15_PT183H.grib2 2026-04-14 16:37 1.2M
20260414T12Z_MSC_GDPS_WindSpeed_AGL-80m_LatLon0.15_PT183H.grib2 2026-04-14 16:37 1.2M
20260414T12Z_MSC_GDPS_WindSpeed_IsbL-0001_LatLon0.15_PT183H.grib2 2026-04-14 16:37 629K
20260414T12Z_MSC_GDPS_WindSpeed_IsbL-0005_LatLon0.15_PT183H.grib2 2026-04-14 16:37 601K
20260414T12Z_MSC_GDPS_WindSpeed_IsbL-0500_LatLon0.15_PT183H.grib2 2026-04-14 16:37 1.1M
20260414T12Z_MSC_GDPS_WindSpeed_IsbL-0700_LatLon0.15_PT183H.grib2 2026-04-14 16:37 1.5M
20260414T12Z_MSC_GDPS_WindSpeed_IsbL-0850_LatLon0.15_PT183H.grib2 2026-04-14 16:37 1.8M
20260414T12Z_MSC_GDPS_WindSpeed_IsbL-0925_LatLon0.15_PT183H.grib2 2026-04-14 16:37 1.9M
20260414T12Z_MSC_GDPS_WindSpeed_IsbL-1000_LatLon0.15_PT183H.grib2 2026-04-14 16:37 1.9M
20260414T12Z_MSC_GDPS_WindU_AGL-10m_LatLon0.15_PT183H.grib2 2026-04-14 16:37 1.3M
20260414T12Z_MSC_GDPS_WindU_AGL-120m_LatLon0.15_PT183H.grib2 2026-04-14 16:37 1.0M
20260414T12Z_MSC_GDPS_WindU_AGL-40m_LatLon0.15_PT183H.grib2 2026-04-14 16:37 970K
20260414T12Z_MSC_GDPS_WindU_AGL-80m_LatLon0.15_PT183H.grib2 2026-04-14 16:37 1.0M
20260414T12Z_MSC_GDPS_WindU_IsbL-0001_LatLon0.15_PT183H.grib2 2026-04-14 16:37 636K
20260414T12Z_MSC_GDPS_WindU_IsbL-0005_LatLon0.15_PT183H.grib2 2026-04-14 16:37 681K
20260414T12Z_MSC_GDPS_WindU_IsbL-0500_LatLon0.15_PT183H.grib2 2026-04-14 16:37 897K
20260414T12Z_MSC_GDPS_WindU_IsbL-0700_LatLon0.15_PT183H.grib2 2026-04-14 16:37 1.2M
20260414T12Z_MSC_GDPS_WindU_IsbL-0850_LatLon0.15_PT183H.grib2 2026-04-14 16:37 1.4M
20260414T12Z_MSC_GDPS_WindU_IsbL-0925_LatLon0.15_PT183H.grib2 2026-04-14 16:37 1.5M
20260414T12Z_MSC_GDPS_WindU_IsbL-1000_LatLon0.15_PT183H.grib2 2026-04-14 16:37 1.4M
20260414T12Z_MSC_GDPS_WindV_AGL-10m_LatLon0.15_PT183H.grib2 2026-04-14 16:37 1.6M
20260414T12Z_MSC_GDPS_WindV_AGL-120m_LatLon0.15_PT183H.grib2 2026-04-14 16:37 1.0M
20260414T12Z_MSC_GDPS_WindV_AGL-40m_LatLon0.15_PT183H.grib2 2026-04-14 16:37 1.2M
20260414T12Z_MSC_GDPS_WindV_AGL-80m_LatLon0.15_PT183H.grib2 2026-04-14 16:37 1.0M
20260414T12Z_MSC_GDPS_WindV_IsbL-0001_LatLon0.15_PT183H.grib2 2026-04-14 16:37 690K
20260414T12Z_MSC_GDPS_WindV_IsbL-0005_LatLon0.15_PT183H.grib2 2026-04-14 16:37 767K
20260414T12Z_MSC_GDPS_WindV_IsbL-0500_LatLon0.15_PT183H.grib2 2026-04-14 16:37 882K
20260414T12Z_MSC_GDPS_WindV_IsbL-0700_LatLon0.15_PT183H.grib2 2026-04-14 16:37 1.2M
20260414T12Z_MSC_GDPS_WindV_IsbL-0850_LatLon0.15_PT183H.grib2 2026-04-14 16:37 1.4M
20260414T12Z_MSC_GDPS_WindV_IsbL-0925_LatLon0.15_PT183H.grib2 2026-04-14 16:37 1.4M
20260414T12Z_MSC_GDPS_WindV_IsbL-1000_LatLon0.15_PT183H.grib2 2026-04-14 16:37 1.4M